Middlesboro, KY

9:05 PM EST on February 21, 2017 (GMT -0500)
Middlesboro

Weather History for K1A6 - October, 2012

Change the Weather History Date:

Saturday, October 13, 2012

  Actual Average (KLOZ) Record (KLOZ)
Temperature  
Mean Temperature 58 °F -  
Max Temperature 75 °F 70 °F 86 °F (2008)
Min Temperature 42 °F 44 °F 26 °F (1988)
Degree Days  
Heating Degree Days 6    
Growing Degree Days 8 (Base 50)    
Moisture  
Dew Point 52 °F    
Average Humidity 79    
Maximum Humidity 100    
Minimum Humidity 53    
Precipitation  
Precipitation 0.00 in - - ()
Sea Level Pressure  
Sea Level Pressure 30.28 in    
Wind  
Wind Speed 2 mph (South)    
Max Wind Speed 13 mph    
Max Gust Speed -    
Visibility 7 miles    
Events Fog    
Averages and records for this station are not official NWS values.
T = Trace of Precipitation, MM = Missing Value Source: NWS Daily Summary

Daily Weather History Graph

Daily Weather History Graph

Search for Another Location

Airport or City:

Trip Planner

Search our weather history database for the weather conditions in past years. The results will help you decide how hot, cold, wet, or windy it might be!

Date:

Astronomy

Oct. 13, 2012 Rise Set
Actual Time 6:40 AM CDT 6:00 PM CDT
Civil Twilight 6:14 AM CDT 6:26 PM CDT
Nautical Twilight 5:44 AM CDT 6:56 PM CDT
Astronomical Twilight 5:15 AM CDT 7:26 PM CDT
Moon 4:32 AM CDT (10/13) 4:42 PM CDT (10/13)
Length of Visible Light 12h 11m
Length of Day
11h 19m
Waning Crescent, 5% of the Moon is Illuminated
Oct 13
Waning Crescent
Oct 15
New
Oct 21
First Quarter
Oct 29
Full
Nov 6
Last Quarter

Hourly Weather History & Observations

Time (CDT) Temp. Dew Point Humidity Pressure Visibility Wind Dir Wind Speed Gust Speed Precip Events Conditions
12:55 AM 44.6 °F 44.6 °F 100% 30.33 in 0.2 mi Calm Calm - N/A Fog Fog
1:35 AM 44.6 °F 44.6 °F 100% 30.33 in 0.2 mi Calm Calm - N/A Fog Fog
1:55 AM 44.6 °F 44.6 °F 100% 30.33 in 0.2 mi Calm Calm - N/A Fog Fog
2:15 AM 44.6 °F 42.8 °F 93% 30.32 in 0.2 mi Calm Calm - N/A Fog Fog
2:35 AM 44.6 °F 42.8 °F 93% 30.32 in 0.2 mi Calm Calm - N/A Fog Fog
2:55 AM 44.6 °F 42.8 °F 93% 30.31 in 0.2 mi Calm Calm - N/A Fog Fog
3:15 AM 44.6 °F 42.8 °F 93% 30.31 in 0.2 mi Calm Calm - N/A Fog Fog
3:35 AM 44.6 °F 42.8 °F 93% 30.31 in 0.2 mi Calm Calm - N/A Fog Fog
3:55 AM 44.6 °F 42.8 °F 93% 30.32 in 0.2 mi Calm Calm - N/A Fog Fog
4:15 AM 44.6 °F 42.8 °F 93% 30.32 in 0.2 mi Calm Calm - N/A Fog Fog
4:35 AM 42.8 °F 42.8 °F 100% 30.33 in - Calm Calm - N/A Fog Fog
4:55 AM 42.8 °F 42.8 °F 100% 30.33 in 1.0 mi Calm Calm - N/A Fog Fog
5:15 AM 42.8 °F 42.8 °F 100% 30.33 in 0.2 mi Calm Calm - N/A Fog Fog
5:55 AM 42.8 °F 41.0 °F 93% 30.33 in 0.2 mi Calm Calm - N/A Fog Fog
6:15 AM 42.8 °F 41.0 °F 93% 30.33 in 0.2 mi Calm Calm - N/A Fog Fog
6:35 AM 42.8 °F 41.0 °F 93% 30.33 in 0.5 mi Calm Calm - N/A Fog Fog
6:55 AM 42.8 °F 41.0 °F 93% 30.33 in 0.2 mi Calm Calm - N/A Fog Fog
7:15 AM 42.8 °F 41.0 °F 93% 30.33 in 0.2 mi Calm Calm - N/A Fog Fog
7:35 AM 42.8 °F 41.0 °F 93% 30.33 in 0.2 mi Calm Calm - N/A Fog Fog
7:55 AM 42.8 °F 42.8 °F 100% 30.34 in 0.5 mi Calm Calm - N/A Fog Fog
8:15 AM 44.6 °F 44.6 °F 100% 30.34 in 10.0 mi Calm Calm - N/A   Scattered Clouds
8:55 AM 53.6 °F 51.8 °F 94% 30.35 in 10.0 mi North - - N/A   Clear
9:35 AM 62.6 °F 50.0 °F 63% 30.35 in 10.0 mi Calm Calm - N/A   Clear
9:55 AM 62.6 °F 50.0 °F 63% 30.34 in 10.0 mi SSE 4.6 mph - N/A   Clear
10:15 AM 64.4 °F 51.8 °F 64% 30.34 in 10.0 mi Calm Calm - N/A   Clear
10:35 AM 66.2 °F 51.8 °F 60% 30.33 in 10.0 mi SE 3.5 mph - N/A   Clear
10:55 AM 68.0 °F 53.6 °F 60% 30.32 in 10.0 mi South 3.5 mph - N/A   Clear
11:15 AM 69.8 °F 55.4 °F 60% 30.31 in 10.0 mi South 3.5 mph - N/A   Clear
11:35 AM 69.8 °F 55.4 °F 60% 30.30 in 10.0 mi SSE 3.5 mph - N/A   Clear
11:55 AM 71.6 °F 57.2 °F 60% 30.29 in 10.0 mi Calm Calm - N/A   Clear
12:15 PM 71.6 °F 57.2 °F 60% 30.29 in 10.0 mi South 9.2 mph - N/A   Clear
12:35 PM 73.4 °F 57.2 °F 57% 30.28 in 10.0 mi SSW 8.1 mph - N/A   Clear
12:55 PM 73.4 °F 57.2 °F 57% 30.28 in 10.0 mi South 8.1 mph - N/A   Clear
1:15 PM 73.4 °F 57.2 °F 57% 30.26 in 10.0 mi South 6.9 mph - N/A   Clear
1:35 PM 75.2 °F 57.2 °F 53% 30.26 in 10.0 mi SE 8.1 mph - N/A   Clear
1:55 PM 75.2 °F 57.2 °F 53% 30.25 in 10.0 mi South 8.1 mph - N/A   Clear
2:15 PM 75.2 °F 59.0 °F 57% 30.24 in 10.0 mi South 8.1 mph - N/A   Clear
2:35 PM 75.2 °F 59.0 °F 57% 30.23 in 10.0 mi South 12.7 mph - N/A   Clear
3:15 PM 75.2 °F 59.0 °F 57% 30.22 in 10.0 mi South 9.2 mph - N/A   Clear
3:35 PM 75.2 °F 59.0 °F 57% 30.22 in 10.0 mi SSE 8.1 mph - N/A   Clear
3:55 PM 75.2 °F 60.8 °F 61% 30.21 in 10.0 mi South 8.1 mph - N/A   Clear
4:15 PM 75.2 °F 60.8 °F 61% 30.20 in 10.0 mi SSW 6.9 mph - N/A   Clear
4:35 PM 75.2 °F 60.8 °F 61% 30.20 in 10.0 mi SSW 6.9 mph - N/A   Clear
4:55 PM 75.2 °F 60.8 °F 61% 30.20 in 10.0 mi South 3.5 mph - N/A   Clear
5:15 PM 73.4 °F 60.8 °F 65% 30.20 in 10.0 mi SSW 3.5 mph - N/A   Clear
5:55 PM 69.8 °F 60.8 °F 73% 30.20 in 10.0 mi Calm Calm - N/A   Clear
6:15 PM 66.2 °F 60.8 °F 83% 30.21 in 10.0 mi Calm Calm - N/A   Scattered Clouds
6:35 PM 66.2 °F 60.8 °F 83% 30.21 in 10.0 mi Calm Calm - N/A   Mostly Cloudy
7:35 PM 64.4 °F 60.8 °F 88% 30.22 in 10.0 mi Calm Calm - N/A   Scattered Clouds
7:55 PM 62.6 °F 60.8 °F 94% 30.22 in 10.0 mi Calm Calm - N/A   Clear
8:35 PM 60.8 °F 60.8 °F 100% 30.22 in 10.0 mi Calm Calm - N/A   Clear
9:15 PM 60.8 °F 59.0 °F 94% 30.22 in 10.0 mi Calm Calm - N/A   Clear
9:35 PM 59.0 °F 57.2 °F 94% 30.21 in 7.0 mi Calm Calm - N/A   Clear
9:55 PM 57.2 °F 57.2 °F 100% 30.21 in 7.0 mi Calm Calm - N/A   Clear
10:15 PM 60.8 °F 59.0 °F 94% 30.21 in 10.0 mi Calm Calm - N/A   Clear
11:15 PM 62.6 °F 57.2 °F 82% 30.20 in 10.0 mi East 4.6 mph - N/A   Clear
11:35 PM 62.6 °F 55.4 °F 77% 30.20 in 10.0 mi ESE 3.5 mph - N/A   Clear
11:55 PM 60.8 °F 55.4 °F 82% 30.19 in 10.0 mi East 5.8 mph - N/A   Clear